Regional Weather Roundup
Issued by NWS

Home | Current Version | Previous Version | Text Only | Print | Product List | Glossary On
Versions: 1 2 3 4 5 6 7 8 9 10 11 12 13 14 15 16 17 18 19 20 21 22 23 24 25 26 27 28 29 30 31 32 33 34 35 36 37 38 39 40 41 42 43 44 45 46 47 48 49 50
000
ASUS43 KMPX 011910
RWRMN
WEATHER ROUNDUP FOR MINNESOTA
NATIONAL WEATHER SERVICE TWIN CITIES/CHANHASSEN MN
200 PM CDT SUN MAY 01 2016


NOTE: "FAIR" INDICATES FEW OR NO CLOUDS BELOW 12,000 FEET WITH NO
SIGNIFICANT WEATHER AND/OR OBSTRUCTIONS TO VISIBILITY. N/A MEANS
CURRENT SKY AND/OR WEATHER CONDITIONS ARE NOT AVAILABLE.

MNZ060>063-068>070-012000-
   Twin Cities Metro

CITY           SKY/WX    TMP DP  RH WIND       PRES   REMARKS
TWIN CITIES    PTSUNNY   59  36  42 N12G18    30.12F
ST PAUL        MOSUNNY   59  37  44 NE10G20   30.12F
CRYSTAL        MOSUNNY   60  34  37 NE10G18   30.12F
BLAINE         MOSUNNY   61  34  36 NE12      30.12F
EDEN PRAIRIE   SUNNY     59  34  39 NE10G18   30.11F
SOUTH ST PAUL  SUNNY     60  34  37 NE13G18   30.11F
LAKE ELMO      FAIR      59  37  44 NE6       30.12F
$$
MNZ001>005-007-008-013>017-022>024-027-028-012000-
   Northwest Minnesota

CITY           SKY/WX    TMP DP  RH WIND       PRES   REMARKS
BEMIDJI        SUNNY     57  30  35 N8        30.20F
HALLOCK        SUNNY     63  19  19 E5G16     30.22F
ROSEAU         SUNNY     59  30  33 E7        30.23F
WARROAD        SUNNY     54  32  43 E8        30.25F
THIEF RVR FALL SUNNY     59  28  31 CALM      30.23F
CROOKSTON      SUNNY     61  28  29 E3        30.22F
FOSSTON        SUNNY     61  28  29 NE9       30.21F
DETROIT LAKES  SUNNY     59  32  36 NE3       30.20F
MOORHEAD       SUNNY     59  28  31 NE6G20    30.22F
PARK RAPIDS    SUNNY     59  26  28 N12       30.18F
MAHNOMEN       FAIR      60  31  34 N14       30.20F
$$
MNZ006-009>011-018-025>026-012000-
   North Central Minnesota

CITY           SKY/WX    TMP DP  RH WIND       PRES   REMARKS
BAUDETTE       SUNNY     59  29  31 NW14      30.22F
FLAG ISLAND    SUNNY     50  36  57 S6        30.22F
INTL FALLS     SUNNY     55  29  36 N7        30.22F
WASKISH        SUNNY     59  30  33 N7        30.21F
BIG FORK       SUNNY     59  28  31 NE8       30.20F
LONGVILLE      SUNNY     57  28  33 N6        30.18F
GRAND RAPIDS   SUNNY     55  27  33 E7        30.20F
CRANE LAKE     SUNNY     54  27  35 W6        30.23F
ORR            SUNNY     57  25  28 W7        30.17F
COOK           SUNNY     55  28  35 E6        30.20F
WALKER         FAIR      55  31  41 SE7       30.19F
$$
MNZ012-019>021-037-012000-
   Northeast Minnesota

CITY           SKY/WX    TMP DP  RH WIND       PRES   REMARKS
DULUTH         MOSUNNY   50  36  58 E10       30.20F
ELY            SUNNY     54  28  37 NE3       30.19F
HIBBING        MOSUNNY   56  30  37 N7        30.18F
EVELETH        SUNNY     57  30  35 E7        30.19F
DULUTH HARBOR  SUNNY     43  37  81 NE10      30.24F
TWO HARBORS    SUNNY     52  39  62 E10G16    30.20F
SILVER BAY     SUNNY     50  36  57 NE9       30.20F
GRAND MARAIS     N/A     43  34  70 E7        30.24F
G MARAIS ARPRT PTSUNNY   50  30  46 SE6       30.21S
$$
MNZ029>031-032-039>041-046>048-054>057-064-012000-
   West Central Minnesota

CITY           SKY/WX    TMP DP  RH WIND       PRES   REMARKS
FERGUS FALLS   SUNNY     59  32  36 N10G20    30.18F
WHEATON        SUNNY     61  34  36 NE8G20    30.22F
MORRIS         SUNNY     59  30  33 E16       30.18F
ALEXANDRIA     SUNNY     58  30  34 NE9G22    30.18F
ELBOW LAKE     FAIR      56  32  40 N13G20    30.19F
WADENA         SUNNY     57  30  35 N9G18     30.18F
GLENWOOD       SUNNY     57  28  33 NE9G20    30.18F
APPLETON       SUNNY     59  27  29 NE13G24   30.18F
BENSON         SUNNY     57  27  30 E12G20    30.18F
ORTONVILLE     SUNNY     57  30  35 NE16      30.19F
MADISON        SUNNY     57  32  38 N13       30.18F
WILLMAR        FAIR      57  36  44 NE10G20   30.17F
$$
MNZ033>034-036-042>043-049>051-058-059-012000-
   Central Minnesota

CITY           SKY/WX    TMP DP  RH WIND       PRES   REMARKS
ST CLOUD       MOSUNNY   58  33  39 NE8G21    30.15F
SAUK CENTRE    FAIR      55  32  41 NE9       30.18F
PAYNESVILLE    SUNNY     56  31  38 NE9G21    30.17F
AITKIN         SUNNY     61  27  27 N13       30.16F
PINE RIVER     SUNNY     57  32  38 NE9       30.21F
BRAINERD       SUNNY     58  29  33 NE9       30.18F
STAPLES        SUNNY     57  27  30 NE9       30.17F
LONG PRAIRIE   FAIR      55  32  41 N5        30.18F
LITTLE FALLS   SUNNY     55  30  38 E12G22    30.18F
LITCHFIELD     SUNNY     57  36  44 NE12G17   30.16F
BUFFALO        MOSUNNY   57  34  41 N6G20     30.15F
MAPLE LAKE     SUNNY     57  37  47 N9G17     30.16F
HUTCHINSON     MOSUNNY   58  38  47 NE17      30.15F
$$
MNZ037-044-045-052-053-012000-
   East Central Minnesota

CITY           SKY/WX    TMP DP  RH WIND       PRES   REMARKS
PRINCETON      SUNNY     57  36  44 NE12G18   30.15F
MORA           SUNNY     55  34  44 E6        30.18F
CAMBRIDGE      MOSUNNY   59  39  47 N8G17     30.13F
RUSH CITY      MOSUNNY   58  37  46 N10G16    30.14F
MOOSE LAKE     SUNNY     54  34  47 NE12G20   30.17F
HINCKLEY       FAIR      55  37  50 N15G22    30.16F
CLOQUET        SUNNY     52  36  54 NE13      30.19F
MCGREGOR       SUNNY     55  32  41 NE6       30.18F
$$
MNZ071>073-080-081-089-090-097-098-012000-
   Southwest Minnesota

CITY           SKY/WX    TMP DP  RH WIND       PRES   REMARKS
MONTEVIDEO     MOSUNNY   59  34  38 E13G21    30.19F
GRANITE FALLS  SUNNY     58  36  43 N14       30.18F
CANBY          SUNNY     59  37  44 NE17G23   30.18F
MARSHALL       SUNNY     56  33  42 E13G21    30.17F
REDWOOD FALLS  MOSUNNY   59  33  37 NE10G22   30.15F
OLIVIA         SUNNY     55  34  44 NE10G16   30.14F
PIPESTONE      PTSUNNY   54  36  50 NE10G20   30.16S
WINDOM         MOSUNNY   55  36  47 N15G22    30.13F
WORTHINGTON    CLOUDY    52  41  66 N14G21    30.14F
JACKSON        CLOUDY    54  37  54 N16       30.12F
TRACY          PTSUNNY   56  37  48 NE10G20   30.16S
SLAYTON        MOSUNNY   52  36  54 N12G20    30.16F
$$
MNZ065>067-074>077-082>085-091>093-012000-
   South Central Minnesota

CITY           SKY/WX    TMP DP  RH WIND       PRES   REMARKS
MANKATO        MOSUNNY   57  37  47 NE14      30.11F
NEW ULM          N/A     55  37  50 N9        30.13F
ST JAMES       MOSUNNY   52  37  58 N14G24    30.13F
FAIRMONT       CLOUDY    54  39  58 NE14G22   30.11S
GLENCOE        SUNNY     57  40  53 NE7       30.13F
FARIBAULT      MOSUNNY   59  36  41 N9G22     30.10F
OWATONNA       CLOUDY    57  39  51 E8        30.09F
WASECA         PTSUNNY   55  37  50 NE15      30.11S
ALBERT LEA     CLOUDY    54  39  58 NE9G18    30.09S
$$
MNZ078>079-086>088-094>096-012000-
   Southeast Minnesota

CITY           SKY/WX    TMP DP  RH WIND       PRES   REMARKS
ROCHESTER      CLOUDY    56  39  53 NE16      30.09S
RED WING       SUNNY     63  28  27 E13G23    30.08S
STANTON        MOSUNNY   61  35  37 NE10G20   30.09S
DODGE CENTER   CLOUDY    55  34  44 NE21G29   30.08F
WINONA         CLOUDY    59  36  41 E10       30.08S
AUSTIN         CLOUDY    52  39  62 N10       30.07F
PRESTON        CLOUDY    52  39  61 NE12G17   30.07S
$$
ABBREVIATIONS USED IN REMARKS
   TC - TEMPERATURES IN CELSIUS
  WCI - WIND CHILL INDEX
   HX - HEAT INDEX
  VSB - VISIBILITY
$$




USA.gov is the U.S. government's official web portal to all federal, state and local government web resources and services.